HB9EKO-12 Weather Reports


time (UTC)temp
C
wind
direction
speed
KPH
gust
KPH
rain 1hr
cm
rain 24hr
cm
rain mn
cm
humidity
%
barometer
mb
20260502162240 35 0 0.0 0.0 0.00 0.00 0.00 17 1017.0
20260502160735 33 0 1.6 0.0 0.00 0.00 0.00 19 1017.0
20260502152219 33 0 0.0 0.0 0.00 0.00 0.00 20 1018.0
20260502150714 33 0 4.8 0.0 0.00 0.00 0.00 21 1018.0
20260502130632 26 0 11.3 0.0 0.00 0.00 0.00 28 1020.0
20260502123622 26 0 1.6 0.0 0.00 0.00 0.00 29 1020.0
20260502122116 25 0 0.0 0.0 0.00 0.00 0.00 34 1020.0
20260502120611 25 0 0.0 0.0 0.00 0.00 0.00 35 1021.0
20260502115106 23 0 6.4 0.0 0.00 0.00 0.00 38 1021.0
20260502113601 23 0 9.7 0.0 0.00 0.00 0.00 39 1021.0
20260502112056 23 0 0.0 0.0 0.00 0.00 0.00 43 1021.0
20260502110550 22 0 0.0 0.0 0.00 0.00 0.00 42 1022.0
20260502105045 21 0 4.8 0.0 0.00 0.00 0.00 44 1022.0
20260502103540 21 0 0.0 0.0 0.00 0.00 0.00 45 1022.0
20260502102035 21 0 0.0 0.0 0.00 0.00 0.00 45 1022.0
20260502100529 21 0 1.6 0.0 0.00 0.00 0.00 45 1022.0
20260502090508 18 0 16.1 0.0 0.00 0.00 0.00 48 1023.0
20260502070426 13 0 1.6 0.0 0.00 0.00 0.00 57 1024.0
20260502064921 12 0 1.6 0.0 0.00 0.00 0.00 61 1024.0
20260502063416 12 0 0.0 0.0 0.00 0.00 0.00 63 1024.0
20260502061911 11 0 0.0 0.0 0.00 0.00 0.00 67 1024.0
20260502060405 10 0 0.0 0.0 0.00 0.00 0.00 69 1024.0
20260502054900 11 0 0.0 0.0 0.00 0.00 0.00 67 1024.0
20260502053355 11 0 0.0 0.0 0.00 0.00 0.00 67 1024.0
20260502051850 10 0 0.0 0.0 0.00 0.00 0.00 68 1024.0
20260502050345 9 0 0.0 0.0 0.00 0.00 0.00 71 1024.0
20260502044839 9 0 0.0 0.0 0.00 0.00 0.00 72 1024.0
20260502043334 9 0 0.0 0.0 0.00 0.00 0.00 72 1024.0
20260502041829 8 0 0.0 0.0 0.00 0.00 0.00 73 1024.0
20260502040324 9 0 0.0 0.0 0.00 0.00 0.00 72 1024.0
20260502034818 9 0 0.0 0.0 0.00 0.00 0.00 71 1024.0
20260502033313 9 0 0.0 0.0 0.00 0.00 0.00 71 1024.0
20260502031808 9 0 0.0 0.0 0.00 0.00 0.00 71 1024.0
20260502030303 9 0 0.0 0.0 0.00 0.00 0.00 69 1024.0
20260502024757 10 0 0.0 0.0 0.00 0.00 0.00 69 1024.0
20260502023252 9 0 0.0 0.0 0.00 0.00 0.00 69 1024.0
20260502021747 10 0 0.0 0.0 0.00 0.00 0.00 68 1024.0
20260502020242 10 0 0.0 0.0 0.00 0.00 0.00 67 1024.0
20260502014736 10 0 0.0 0.0 0.00 0.00 0.00 66 1024.0
20260502013231 10 0 0.0 0.0 0.00 0.00 0.00 65 1024.0
20260502011726 10 0 0.0 0.0 0.00 0.00 0.00 64 1024.0
20260502010221 11 0 0.0 0.0 0.00 0.00 0.00 62 1024.0
20260502004716 11 0 0.0 0.0 0.00 0.00 0.00 62 1024.0
20260502003210 10 0 0.0 0.0 0.00 0.00 0.00 63 1024.0
20260502001705 10 0 0.0 0.0 0.00 0.00 0.00 61 1024.0
20260502000200 11 0 0.0 0.0 0.00 0.00 0.00 59 1024.0
20260501234655 12 0 0.0 0.0 0.00 0.00 0.00 58 1024.0
20260501231644 12 0 0.0 0.0 0.00 0.00 0.00 57 1024.0
20260501230139 11 0 0.0 0.0 0.00 0.00 0.00 57 1024.0
20260501224634 11 0 0.0 0.0 0.00 0.00 0.00 56 1024.0
20260501223128 12 0 0.0 0.0 0.00 0.00 0.00 55 1024.0
20260501221623 12 0 0.0 0.0 0.00 0.00 0.00 55 1024.0
20260501220118 13 0 0.0 0.0 0.00 0.00 0.00 52 1024.0
20260501214613 12 0 0.0 0.0 0.00 0.00 0.00 52 1023.0
20260501213107 13 0 0.0 0.0 0.00 0.00 0.00 50 1024.0
20260501211602 13 0 0.0 0.0 0.00 0.00 0.00 48 1023.0
20260501210057 14 0 0.0 0.0 0.00 0.00 0.00 47 1023.0
20260501204552 15 0 0.0 0.0 0.00 0.00 0.00 45 1023.0
20260501203046 15 0 0.0 0.0 0.00 0.00 0.00 44 1023.0
20260501201541 16 0 0.0 0.0 0.00 0.00 0.00 43 1023.0
20260501194531 16 0 0.0 0.0 0.00 0.00 0.00 41 1023.0
20260501193026 17 0 0.0 0.0 0.00 0.00 0.00 38 1023.0
20260501191520 18 0 0.0 0.0 0.00 0.00 0.00 35 1023.0
20260501190015 19 0 0.0 0.0 0.00 0.00 0.00 32 1023.0
20260501184510 20 0 0.0 0.0 0.00 0.00 0.00 30 1023.0
20260501183005 21 0 0.0 0.0 0.00 0.00 0.00 26 1023.0
20260501181459 23 0 0.0 0.0 0.00 0.00 0.00 23 1022.0
20260501175954 24 0 0.0 0.0 0.00 0.00 0.00 21 1022.0
20260501174449 26 0 0.0 0.0 0.00 0.00 0.00 19 1022.0
20260501172944 28 0 0.0 0.0 0.00 0.00 0.00 17 1022.0
20260501171438 28 0 0.0 0.0 0.00 0.00 0.00 15 1022.0
20260501164428 30 0 1.6 0.0 0.00 0.00 0.00 16 1022.0